Location: Burgwalden
(48.2830°N, 10.7576°E)
Time: 03:00:14
(UTC+00:00)

Cosmos 1655 Rocket - Pass Details

Date: 26 September 2023
Orbit: 969 x 1006 km, 83.0° (Epoch: 04 December)

Event Time Altitude Azimuth Distance (km) Brightness Sun altitude
Exits shadow 02:45:12 - 174° (S) 2,863 6.2 -23.8°
Reaches altitude 10° 02:45:27 10° 174° (S) 2,771 6.2 -23.8°
Maximum altitude 02:51:45 65° 94° (E) 1,100 4.4 -22.9°
Drops below altitude 10° 02:58:06 10° 14° (NNE) 2,794 6.9 -21.9°
Sets 03:00:39 0° 12° (NNE) 3,747 7.6 -21.5°
